Погода Ивано-Франковск

Поиск расширенной информации на нашем сайте:

Полезная информация:

Новости сайта



02.01.2020
Опубликован Долгосрочный прогноз погоды по городам России и ближнего зарубежья на январь 2020 года.
Карты: Прогноз на январь и февраль 2020 года, Сравнение прогнозируемой аномалии приземной температуры воздуха на январь 2020 года по разным моделям.




Погода Ивано-Франковск - сегодня

Время (UTC), дата Ветер
(°,м/с) 
Видим.   Явления Облачность Т
(°С)
Тd
(°С)
f(%) Тe
(°С)
Pmin
(гПа)
dP
(гПа)
Po
(мм)
O2
(г/м3)
Тmin Tmax R s Состояние
почвы
15 27.03.20 110 (В) 50000 м    ясно 
+14.9 -2.9 29 +15  1021.9  -2.1  742  284           
18 27.03.20 тихо ()   50000 м    4/0 средняя 
[Ac trans]
+5.9 -1.6 59 +6  1022.8  -0.2  741  293    +15.2       
21 27.03.20 тихо ()   20000 м    ясно 
+0.3 -2.2 83 1022.9  -0.6  741  298           
00 28.03.20 тихо ()   10 км    ясно 
-1.8 -2.6 94 -2  1021.8  -1.3  740  300           
03 28.03.20 тихо ()   10 км    8/0 средняя 
[Ac trans]
-0.3 -2 88 -0  1020.1  -1.4  739  298           
06 28.03.20 240 (ЮЗ) 15000 м    10/0 средняя 
[Ac und]
+2.1 +0.2 87 +1  1019.5  -0.3  739  295  -1.9         
09 28.03.20 070 (В) 20000 м    9/0 средняя 
[Ac trans]
+11.5 -0.9 42 +13  1017.3  -1  738  285           
12 28.03.20 230 (ЮЗ) 40000 м    6/0 средняя 
[Ac trans]
+14.8 -4.2 27 +15  1014.6  -2.3  736  282           
15 28.03.20 260 (З) 40000 м    6/0 средняя 
[Ac trans]
+15.4 -5.2 24 +17  1012.3  -2.1  735  281           
18 28.03.20 250 (З) 10 км    6/0 средняя 
[Ac trans]
+8.1 -2.6 47 +8  1012.8  -0.4  734  288    +16.5       
21 28.03.20 230 (ЮЗ) 10 км    4/0 верхняя 
[Ci fib]
+3.4 -2.2 67 +2  1012.6  -0.7  734  292           
00 29.03.20 тихо ()   10 км    4/0 верхняя 
[Ci fib]
+2.1 -1.8 75 +2  1011.9  -0.9  733  293           
03 29.03.20 тихо ()   10 км    4/0 средняя 
[Ac trans]
-1.1 -3 87 -1  1011.2  -1  732  297           
06 29.03.20 тихо ()   10 км    6/0 средняя 
[Ac trans]
+2 -2 75 +2  1010.7  -0.1  732  293  -2.3         
09 29.03.20 350 (С) 20000 м    5/0 верхняя 
[Cs]
+14.7 -4.8 26 +15  1008.6  -0.6  732  280           
12 29.03.20 310 (СЗ) 20000 м    4/0 верхняя 
[Cs]
+17 -6.7 19 +17  1007.3  -1  731  278           
15 29.03.20 310 (СЗ) 20000 м    6/0 верхняя 
[Cs]
+16.2 -6.1 21 +16  1007  -0.4  731  279           
18 29.03.20 260 (З) 10 км    6/0 средняя 
[Ac trans]
+11.3 -2.5 38 +12  1008.8  1.2  732  283    +17.5       
21 29.03.20 300 (СЗ) 10 км    8/0 средняя 
[Ac trans]
+10.9 +1.2 51 +10  1009.9  1.1  733  284           
00 30.03.20 300 (СЗ) 10 км    8/8 1380 м 
[Sc]
+8.8 +1.3 59 +7  1011.1  0.9  733  286           
03 30.03.20 300 (СЗ) 10 км    8/8 800 м 
[Sc]
+5.7 +1.2 73 +3  1013.2  1.7  734  290           
06 30.03.20 310 (СЗ) 10 км  слаб. ливневой дождь  8/8 600 м кучево-дожд. 
[Cb calv]
+2.5 -0.5 81 1015.8  2.1  736  294  +2.4    0.0     
09 30.03.20 300 (СЗ) 10 км  слаб. ливневой дождь со снегом  10/10 500 м кучево-дожд. 
[Cb cap]
+1.2 -2 79 -2  1017.9  1.8  737  296           
12 30.03.20 300 (СЗ) 10 км  слаб. ливневой дождь со снегом  10/10 500 м кучево-дожд. 
[Cb cap]
+0.9 -2.9 76 -3  1018.7  0.8  738  297      0.3     
15 30.03.20 310 (СЗ) 2500 м  слаб. ливневой снег  10/10 540 м кучево-дожд. 
[Cb cap]
-0.7 -2.5 88 -3  1020.1  1.1  739  299           
Время (UTC), дата Ветер
(°,м/с) 
Видим.   Явления Облачность Т
(°С)
Тd
(°С)
f(%) Тe
(°С)
Pmin
(гПа)
dP
(гПа)
Po
(мм)
O2
(г/м3)
Тmin Tmax R s Состояние
почвы

Для получения пояснительной информации подведите курсор к названию столбца.

ПОГОДА Ивано-Франковск - архив

Всё, что Вы хотите узнать о погоде Ивано-Франковск - удобно и подробно!

Выберите нужную дату (начиная с 1 января 2019* года) и нажмите кнопку "Найти".
Будут отображены архивные сводки погоды по пункту Ивано-Франковск, начиная с указанной даты.


Отображать данные в формате CSV (для использования в таблицах Excel)


Внимание! Наш архив погоды предназначен исключительно для личного некоммерческого использования в познавательных целях. Если Вам необходимы официальные справки о состоянии погоды (для производственных, юридических, коммерческих и т.п. целей), обращайтесь в органы Росгидромета.

*Примечание: данная дата относится к архиву по метеостанциям СССР (Россия, СНГ, Балтия).
Архив по метеостанциям Зарубежной Европы и Азии (кроме Китая) хранится 10 дней, по другим регионам земного шара (Китай, Африка, Америка, Австралия, Океания) - 1 день.

Ивано-Франковск - район местоположения метеостанции


Название, широта, долгота, высота метеостанции:
Ивано-Франковск 49°ш. 24.4°д. 280 м над ур. моря [Украина]

Дополнительная информация

В oтличие oт бoльшинства пoгoдных сайтoв мы публикуем пoдрoбную метеoинфoрмацию в детальнoм прoфессиoнальнoм фoрмате.

Характеристики температуры и влажнoсти вoздуха измеряются на высoте 2 м в тени вдали oт зданий и деревьев.
Скoрoсть ветра измеряется на высoте 10 м (на урoвне рoста челoвека скoрoсть ветра ниже в 1.5-2 раза). Если метеoстанция нахoдится в гoрoде или в лесу, тo скoрoсть ветра занижена на 2-4 м/с пo сравнению с oткрытым местoм. Скoрoсть ветра над акватoриями крупных рек и oзёр, а также на вершинах хoлмoв на 2-5 м/с выше, чем в oбычных услoвиях.
Атмoсфернoе давление в разных тoчках местнoсти мoжет значительнo oтличаться oт давления на метеoстанции, в зависимoсти oт услoвий рельефа (при пoдъёме на 10 м давление пoнижается примернo на 1 мм рт.ст.).